Location: Asheville, NC
(35.6000°N, 82.5500°W)
Time: 09:34:43
(UTC-04:00)

BEESAT 2 - Pass Details

Date: 15 March 2018
Orbit: 502 x 532 km, 64.9° (Epoch: 24 June)

Event Time Altitude Azimuth Distance (km) Brightness Sun altitude
Rises 21:13:30 0° 228° (SW) 2,634 ? -20.1°
Reaches altitude 10° 21:15:48 10° 237° (WSW) 1,755 ? -20.6°
Maximum altitude 21:19:26 35° 304° (NW) 864 ? -21.3°
Drops below altitude 10° 21:23:07 10° 12° (NNE) 1,780 ? -22.0°
Enters shadow 21:24:49 - 19° (NNE) 2,429 ? -22.4°
